QPF
0.04 0.05 0.05 0.06 0.09 0.11 0.13 0.20 0.20 0.18 0.18 0.18 0.16 0.14 0.14 0.11 0.09 0.07 0.06 0.06 0.11 0.15 0.20 0.21 0.20 0.19 0.18 0.16 0.12 0.10 0.08 0.07 0.05 0.04 0.04 0.05 0.06 0.06 0.06 0.06 0.05 0.05 0.04
0.11 0.09 0.09 0.10 0.12 0.11 0.11 0.15 0.18 0.16 0.15 0.16 0.15 0.15 0.14 0.12 0.10 0.08 0.06 0.05 0.09 0.12 0.17 0.22 0.22 0.22 0.21 0.19 0.17 0.13 0.11 0.10 0.08 0.06 0.05 0.05 0.06 0.06 0.07 0.08 0.07 0.06 0.06
0.21 0.17 0.15 0.13 0.16 0.14 0.10 0.11 0.12 0.13 0.12 0.11 0.10 0.10 0.10 0.09 0.06 0.05 0.05 0.04 0.06 0.09 0.13 0.18 0.20 0.22 0.21 0.21 0.21 0.18 0.14 0.12 0.11 0.10 0.08 0.06 0.05 0.05 0.06 0.07 0.07 0.07 0.06
0.25 0.21 0.18 0.15 0.11 0.07 0.07 0.07 0.07 0.07 0.07 0.06 0.07 0.07 0.08 0.08 0.05 0.05 0.05 0.05 0.06 0.06 0.09 0.14 0.15 0.15 0.18 0.21 0.23 0.21 0.19 0.16 0.14 0.12 0.10 0.08 0.07 0.06 0.05 0.05 0.07 0.07 0.07
0.26 0.22 0.17 0.10 0.06 0.05 0.04 0.04 0.04 0.04 0.04 0.04 0.05 0.05 0.04 0.03 0.03 0.03 0.03 0.04 0.04 0.04 0.05 0.08 0.11 0.13 0.16 0.18 0.18 0.19 0.20 0.17 0.15 0.14 0.13 0.11 0.10 0.08 0.06 0.05 0.06 0.07 0.06
0.23 0.17 0.11 0.07 0.04 0.02 0.01 0.01 0.02 0.02 0.03 0.03 0.03 0.02 0.01 0.01 0.01 0.02 0.03 0.03 0.04 0.05 0.05 0.07 0.08 0.08 0.08 0.11 0.12 0.15 0.17 0.16 0.13 0.13 0.12 0.12 0.12 0.10 0.07 0.06 0.06 0.07 0.07
0.20 0.17 0.09 0.04 0.02 0.01 0.01 0.00 0.00 0.01 0.01 0.02 0.01 0.01 0.00 0.00 0.00 0.01 0.02 0.02 0.02 0.03 0.05 0.06 0.06 0.05 0.04 0.04 0.06 0.10 0.14 0.16 0.15 0.13 0.12 0.11 0.11 0.10 0.09 0.07 0.05 0.04 0.05
0.13 0.10 0.06 0.03 0.02 0.01 0.00 0.00 0.00 0.00 0.00 0.01 0.01 0.01 0.00 0.01 0.00 0.00 0.00 0.01 0.02 0.02 0.03 0.02 0.02 0.02 0.02 0.02 0.02 0.05 0.10 0.13 0.12 0.13 0.11 0.11 0.10 0.09 0.09 0.09 0.07 0.04 0.04
0.10 0.08 0.05 0.03 0.02 0.01 0.01 0.00 0.00 0.00 0.00 0.00 0.00 0.00 0.00 0.00 0.00 0.00 0.00 0.01 0.00 0.01 0.01 0.01 0.00 0.01 0.01 0.01 0.02 0.02 0.03 0.05 0.07 0.11 0.12 0.10 0.08 0.06 0.06 0.07 0.08 0.05 0.04
0.09 0.08 0.06 0.04 0.03 0.02 0.01 0.01 0.00 0.00 0.00 0.00 0.00 0.00 0.00 0.00 0.00 0.00 0.00 0.00 0.00 0.00 0.00 0.00 0.00 0.00 0.01 0.01 0.01 0.02 0.03 0.03 0.03 0.06 0.09 0.10 0.08 0.06 0.05 0.06 0.08 0.07 0.06
0.11 0.09 0.09 0.07 0.05 0.03 0.02 0.01 0.01 0.00 0.00 0.00 0.00 0.00 0.00 0.00 0.00 0.00 0.00 0.00 0.00 0.00 0.00 0.00 0.00 0.00 0.00 0.01 0.01 0.02 0.03 0.04 0.04 0.05 0.07 0.09 0.09 0.08 0.07 0.06 0.09 0.11 0.10
0.13 0.12 0.11 0.10 0.08 0.06 0.05 0.05 0.04 0.02 0.01 0.01 0.00 0.00 0.00 0.00 0.00 0.00 0.00 0.00 0.00 0.00 0.00 0.00 0.00 0.00 0.00 0.00 0.01 0.03 0.04 0.04 0.05 0.06 0.07 0.07 0.07 0.06 0.06 0.07 0.09 0.11 0.12
0.09 0.10 0.10 0.10 0.10 0.10 0.10 0.10 0.07 0.05 0.03 0.02 0.01 0.01 0.00 0.00 0.00 0.00 0.00 0.00 0.00 0.00 0.00 0.00 0.00 0.00 0.00 0.00 0.01 0.02 0.03 0.03 0.04 0.04 0.05 0.06 0.06 0.05 0.05 0.05 0.05 0.06 0.08
0.05 0.05 0.06 0.06 0.07 0.08 0.08 0.09 0.08 0.07 0.05 0.04 0.03 0.02 0.02 0.01 0.01 0.00 0.00 0.00 0.00 0.00 0.00 0.00 0.00 0.00 0.00 0.01 0.02 0.02 0.02 0.02 0.03 0.03 0.03 0.05 0.06 0.06 0.05 0.05 0.04 0.04 0.04
0.02 0.02 0.02 0.02 0.03 0.04 0.05 0.06 0.06 0.07 0.06 0.04 0.03 0.03 0.03 0.03 0.03 0.02 0.01 0.01 0.01 0.00 0.00 0.00 0.00 0.00 0.00 0.01 0.02 0.02 0.02 0.02 0.02 0.03 0.03 0.04 0.04 0.04 0.03 0.03 0.03 0.03 0.04
0.01 0.01 0.01 0.01 0.01 0.01 0.02 0.03 0.04 0.05 0.05 0.04 0.03 0.04 0.03 0.04 0.04 0.04 0.02 0.01 0.01 0.01 0.01 0.00 0.00 0.00 0.01 0.01 0.02 0.02 0.01 0.02 0.02 0.03 0.03 0.03 0.02 0.02 0.02 0.02 0.02 0.02 0.03
0.01 0.01 0.01 0.01 0.01 0.01 0.02 0.02 0.02 0.02 0.03 0.03 0.02 0.02 0.02 0.03 0.03 0.03 0.03 0.02 0.01 0.01 0.01 0.00 0.01 0.01 0.01 0.01 0.02 0.01 0.01 0.01 0.02 0.02 0.04 0.04 0.03 0.01 0.01 0.01 0.01 0.01 0.02
0.00 0.01 0.01 0.01 0.01 0.01 0.01 0.01 0.02 0.02 0.03 0.04 0.04 0.03 0.02 0.01 0.01 0.01 0.02 0.03 0.02 0.02 0.01 0.01 0.01 0.01 0.01 0.01 0.01 0.01 0.01 0.01 0.01 0.02 0.02 0.03 0.03 0.02 0.01 0.01 0.01 0.01 0.01
0.00 0.00 0.00 0.00 0.01 0.02 0.02 0.02 0.02 0.02 0.02 0.03 0.04 0.05 0.05 0.04 0.02 0.01 0.01 0.01 0.02 0.02 0.03 0.02 0.01 0.01 0.02 0.02 0.02 0.02 0.02 0.02 0.01 0.01 0.01 0.01 0.01 0.01 0.02 0.01 0.01 0.02 0.01
0.00 0.00 0.00 0.00 0.00 0.00 0.01 0.02 0.03 0.02 0.01 0.02 0.02 0.03 0.05 0.07 0.05 0.03 0.02 0.01 0.02 0.02 0.02 0.02 0.03 0.03 0.03 0.02 0.02 0.02 0.02 0.02 0.02 0.01 0.01 0.01 0.01 0.01 0.01 0.01 0.01 0.01 0.01
0.00 0.00 0.00 0.00 0.00 0.00 0.00 0.00 0.01 0.01 0.01 0.01 0.01 0.02 0.02 0.03 0.05 0.06 0.04 0.02 0.02 0.01 0.01 0.02 0.02 0.03 0.03 0.03 0.02 0.02 0.02 0.02 0.02 0.02 0.01 0.01 0.00 0.00 0.01 0.01 0.01 0.01 0.01
0.00 0.00 0.00 0.00 0.00 0.00 0.00 0.00 0.00 0.00 0.00 0.01 0.01 0.01 0.01 0.02 0.03 0.04 0.04 0.02 0.02 0.01 0.01 0.01 0.02 0.02 0.02 0.01 0.02 0.02 0.02 0.02 0.03 0.02 0.01 0.01 0.00 0.00 0.00 0.01 0.01 0.00 0.00
0.00 0.00 0.00 0.00 0.00 0.00 0.00 0.00 0.00 0.00 0.00 0.00 0.01 0.01 0.01 0.01 0.02 0.03 0.03 0.02 0.01 0.01 0.01 0.01 0.01 0.01 0.01 0.01 0.03 0.05 0.04 0.03 0.02 0.02 0.01 0.01 0.01 0.00 0.00 0.00 0.00 0.00 0.00
0.00 0.00 0.00 0.00 0.00 0.00 0.00 0.00 0.00 0.00 0.00 0.01 0.01 0.01 0.01 0.01 0.02 0.02 0.03 0.02 0.01 0.01 0.01 0.01 0.02 0.02 0.02 0.02 0.02 0.05 0.08 0.07 0.06 0.05 0.02 0.01 0.01 0.00 0.00 0.00 0.00 0.00 0.00
0.01 0.00 0.00 0.00 0.00 0.00 0.00 0.00 0.00 0.00 0.00 0.00 0.01 0.01 0.01 0.01 0.03 0.04 0.03 0.02 0.02 0.01 0.01 0.02 0.03 0.03 0.04 0.04 0.03 0.04 0.06 0.05 0.07 0.06 0.04 0.02 0.01 0.00 0.00 0.00 0.00 0.00 0.00
0.01 0.01 0.00 0.00 0.00 0.00 0.00 0.00 0.00 0.00 0.00 0.01 0.01 0.01 0.02 0.02 0.03 0.04 0.04 0.03 0.03 0.02 0.01 0.02 0.02 0.03 0.04 0.04 0.04 0.04 0.04 0.04 0.03 0.03 0.03 0.01 0.00 0.00 0.00 0.00 0.00 0.00 0.00
MSLP
1013.02 1012.90 1012.70 1012.50 1012.34 1012.25 1012.25 1012.31 1012.43 1012.56 1012.67 1012.74 1012.78 1012.79 1012.79 1012.80 1012.85 1012.93 1013.05 1013.17 1013.30 1013.41 1013.52 1013.62 1013.74 1013.90 1014.11 1014.38 1014.71 1015.07 1015.45 1015.82 1016.16 1016.46 1016.75 1017.02 1017.29 1017.58 1017.90 1018.24 1018.59 1018.93 1019.27
1012.46 1012.37 1012.23 1012.08 1011.97 1011.92 1011.95 1012.04 1012.18 1012.32 1012.45 1012.53 1012.57 1012.57 1012.55 1012.53 1012.53 1012.55 1012.61 1012.68 1012.77 1012.87 1012.98 1013.11 1013.26 1013.47 1013.72 1014.02 1014.36 1014.72 1015.09 1015.43 1015.75 1016.04 1016.31 1016.57 1016.84 1017.14 1017.46 1017.81 1018.18 1018.54 1018.90
1011.76 1011.75 1011.68 1011.62 1011.59 1011.61 1011.70 1011.85 1012.02 1012.20 1012.35 1012.45 1012.50 1012.49 1012.45 1012.39 1012.32 1012.27 1012.25 1012.25 1012.29 1012.35 1012.45 1012.60 1012.79 1013.03 1013.32 1013.65 1014.01 1014.37 1014.72 1015.05 1015.34 1015.60 1015.84 1016.09 1016.35 1016.63 1016.96 1017.31 1017.68 1018.07 1018.44
1011.05 1011.10 1011.13 1011.16 1011.22 1011.34 1011.50 1011.71 1011.94 1012.16 1012.34 1012.47 1012.52 1012.51 1012.45 1012.35 1012.22 1012.10 1011.99 1011.91 1011.88 1011.89 1011.97 1012.11 1012.32 1012.59 1012.91 1013.26 1013.63 1014.00 1014.33 1014.63 1014.90 1015.13 1015.34 1015.56 1015.80 1016.07 1016.38 1016.74 1017.12 1017.51 1017.91
1010.43 1010.53 1010.63 1010.75 1010.91 1011.10 1011.34 1011.61 1011.89 1012.15 1012.37 1012.52 1012.59 1012.59 1012.51 1012.38 1012.20 1012.01 1011.82 1011.67 1011.56 1011.52 1011.56 1011.68 1011.88 1012.16 1012.49 1012.85 1013.22 1013.57 1013.89 1014.17 1014.40 1014.60 1014.79 1014.98 1015.20 1015.46 1015.76 1016.11 1016.49 1016.89 1017.30
1010.00 1010.12 1010.27 1010.44 1010.65 1010.91 1011.20 1011.52 1011.84 1012.13 1012.38 1012.56 1012.66 1012.66 1012.59 1012.44 1012.23 1011.99 1011.75 1011.53 1011.36 1011.26 1011.25 1011.34 1011.51 1011.77 1012.08 1012.43 1012.78 1013.11 1013.40 1013.65 1013.86 1014.03 1014.20 1014.38 1014.58 1014.83 1015.12 1015.46 1015.83 1016.23 1016.65
1009.79 1009.90 1010.05 1010.24 1010.48 1010.76 1011.07 1011.41 1011.75 1012.06 1012.33 1012.54 1012.66 1012.70 1012.64 1012.50 1012.29 1012.03 1011.76 1011.50 1011.29 1011.14 1011.07 1011.11 1011.23 1011.44 1011.71 1012.01 1012.31 1012.60 1012.86 1013.08 1013.26 1013.43 1013.58 1013.76 1013.95 1014.19 1014.48 1014.81 1015.17 1015.56 1015.97
1009.80 1009.86 1009.98 1010.14 1010.37 1010.64 1010.94 1011.27 1011.61 1011.93 1012.21 1012.44 1012.59 1012.66 1012.63 1012.52 1012.34 1012.10 1011.83 1011.56 1011.31 1011.13 1011.02 1010.99 1011.06 1011.19 1011.38 1011.61 1011.85 1012.08 1012.29 1012.48 1012.65 1012.80 1012.96 1013.14 1013.34 1013.58 1013.86 1014.18 1014.52 1014.89 1015.28
1009.96 1009.96 1010.01 1010.13 1010.31 1010.54 1010.81 1011.12 1011.43 1011.74 1012.02 1012.25 1012.43 1012.53 1012.55 1012.49 1012.35 1012.15 1011.91 1011.65 1011.41 1011.21 1011.06 1010.98 1010.97 1011.02 1011.13 1011.26 1011.42 1011.57 1011.73 1011.88 1012.04 1012.19 1012.36 1012.55 1012.77 1013.01 1013.29 1013.58 1013.90 1014.24 1014.59
1010.19 1010.12 1010.10 1010.16 1010.28 1010.45 1010.68 1010.95 1011.23 1011.51 1011.78 1012.01 1012.20 1012.33 1012.39 1012.37 1012.29 1012.14 1011.95 1011.74 1011.52 1011.32 1011.15 1011.03 1010.95 1010.92 1010.93 1010.97 1011.04 1011.12 1011.22 1011.34 1011.47 1011.63 1011.81 1012.02 1012.25 1012.50 1012.76 1013.03 1013.31 1013.60 1013.90
1010.40 1010.26 1010.19 1010.19 1010.25 1010.38 1010.57 1010.79 1011.03 1011.28 1011.52 1011.74 1011.92 1012.06 1012.14 1012.17 1012.13 1012.05 1011.92 1011.76 1011.58 1011.40 1011.24 1011.09 1010.96 1010.87 1010.79 1010.75 1010.73 1010.75 1010.79 1010.88 1011.00 1011.16 1011.36 1011.57 1011.81 1012.04 1012.28 1012.51 1012.74 1012.97 1013.21
1010.52 1010.35 1010.24 1010.20 1010.23 1010.33 1010.47 1010.65 1010.86 1011.06 1011.27 1011.45 1011.61 1011.74 1011.82 1011.87 1011.87 1011.83 1011.76 1011.66 1011.54 1011.40 1011.26 1011.11 1010.97 1010.83 1010.71 1010.60 1010.53 1010.49 1010.50 1010.56 1010.67 1010.83 1011.03 1011.24 1011.46 1011.68 1011.87 1012.05 1012.21 1012.36 1012.52
1010.53 1010.36 1010.25 1010.20 1010.21 1010.29 1010.41 1010.56 1010.73 1010.89 1011.05 1011.18 1011.30 1011.39 1011.45 1011.49 1011.51 1011.50 1011.48 1011.43 1011.37 1011.29 1011.19 1011.08 1010.95 1010.81 1010.67 1010.54 1010.44 1010.38 1010.37 1010.42 1010.52 1010.68 1010.86 1011.06 1011.25 1011.42 1011.55 1011.65 1011.73 1011.79 1011.87
1010.45 1010.30 1010.20 1010.17 1010.20 1010.27 1010.38 1010.51 1010.64 1010.76 1010.86 1010.94 1010.99 1011.03 1011.05 1011.06 1011.07 1011.07 1011.08 1011.08 1011.08 1011.06 1011.02 1010.96 1010.88 1010.78 1010.67 1010.56 1010.48 1010.42 1010.42 1010.47 1010.58 1010.72 1010.89 1011.06 1011.20 1011.30 1011.36 1011.37 1011.35 1011.32 1011.30
1010.28 1010.18 1010.12 1010.12 1010.17 1010.26 1010.37 1010.48 1010.58 1010.66 1010.70 1010.72 1010.70 1010.67 1010.63 1010.60 1010.58 1010.58 1010.60 1010.63 1010.68 1010.73 1010.76 1010.78 1010.77 1010.75 1010.70 1010.66 1010.62 1010.61 1010.65 1010.72 1010.83 1010.97 1011.12 1011.24 1011.33 1011.36 1011.33 1011.25 1011.13 1011.00 1010.90
1010.05 1010.00 1009.99 1010.03 1010.11 1010.22 1010.33 1010.44 1010.51 1010.55 1010.54 1010.49 1010.41 1010.31 1010.22 1010.13 1010.08 1010.06 1010.08 1010.14 1010.22 1010.33 1010.44 1010.54 1010.63 1010.70 1010.75 1010.80 1010.85 1010.92 1011.01 1011.12 1011.26 1011.40 1011.52 1011.61 1011.64 1011.60 1011.50 1011.32 1011.12 1010.90 1010.72
1009.74 1009.74 1009.78 1009.87 1009.98 1010.11 1010.23 1010.32 1010.37 1010.37 1010.32 1010.23 1010.10 1009.95 1009.81 1009.68 1009.59 1009.55 1009.56 1009.63 1009.74 1009.89 1010.06 1010.24 1010.43 1010.60 1010.77 1010.93 1011.09 1011.25 1011.43 1011.61 1011.78 1011.94 1012.06 1012.12 1012.11 1012.02 1011.85 1011.61 1011.34 1011.06 1010.82
1009.32 1009.37 1009.46 1009.59 1009.73 1009.87 1009.99 1010.07 1010.11 1010.09 1010.01 1009.89 1009.74 1009.56 1009.39 1009.24 1009.13 1009.07 1009.07 1009.13 1009.25 1009.43 1009.65 1009.89 1010.16 1010.43 1010.71 1010.99 1011.27 1011.54 1011.81 1012.07 1012.30 1012.50 1012.63 1012.69 1012.67 1012.56 1012.36 1012.09 1011.79 1011.48 1011.21
1008.75 1008.85 1008.99 1009.14 1009.31 1009.46 1009.58 1009.66 1009.68 1009.65 1009.57 1009.45 1009.29 1009.12 1008.95 1008.80 1008.68 1008.61 1008.60 1008.65 1008.77 1008.94 1009.18 1009.47 1009.79 1010.15 1010.52 1010.91 1011.30 1011.69 1012.06 1012.41 1012.72 1012.97 1013.15 1013.24 1013.24 1013.14 1012.96 1012.70 1012.41 1012.11 1011.85
1008.01 1008.16 1008.33 1008.52 1008.70 1008.85 1008.97 1009.05 1009.07 1009.05 1008.98 1008.88 1008.75 1008.61 1008.47 1008.34 1008.23 1008.16 1008.14 1008.16 1008.26 1008.42 1008.65 1008.94 1009.30 1009.71 1010.16 1010.63 1011.12 1011.62 1012.10 1012.54 1012.94 1013.27 1013.52 1013.68 1013.73 1013.69 1013.57 1013.37 1013.13 1012.89 1012.67
1007.12 1007.31 1007.52 1007.72 1007.92 1008.07 1008.19 1008.27 1008.30 1008.29 1008.25 1008.19 1008.11 1008.03 1007.93 1007.84 1007.76 1007.69 1007.65 1007.65 1007.71 1007.83 1008.03 1008.30 1008.66 1009.09 1009.59 1010.13 1010.70 1011.29 1011.87 1012.41 1012.91 1013.34 1013.68 1013.93 1014.08 1014.14 1014.11 1014.01 1013.87 1013.71 1013.57
1006.13 1006.35 1006.59 1006.82 1007.02 1007.17 1007.29 1007.36 1007.40 1007.42 1007.42 1007.41 1007.40 1007.37 1007.34 1007.29 1007.24 1007.18 1007.12 1007.09 1007.10 1007.17 1007.31 1007.55 1007.88 1008.31 1008.83 1009.41 1010.05 1010.71 1011.38 1012.02 1012.62 1013.15 1013.60 1013.96 1014.23 1014.41 1014.51 1014.54 1014.52 1014.48 1014.44
1005.14 1005.39 1005.64 1005.88 1006.08 1006.23 1006.34 1006.42 1006.47 1006.51 1006.55 1006.59 1006.64 1006.68 1006.70 1006.70 1006.67 1006.61 1006.54 1006.47 1006.43 1006.44 1006.52 1006.70 1007.00 1007.41 1007.93 1008.54 1009.22 1009.95 1010.69 1011.42 1012.11 1012.74 1013.30 1013.78 1014.18 1014.49 1014.73 1014.90 1015.02 1015.11 1015.19
1004.24 1004.51 1004.77 1005.00 1005.20 1005.35 1005.45 1005.52 1005.58 1005.64 1005.71 1005.79 1005.88 1005.97 1006.04 1006.07 1006.06 1006.01 1005.91 1005.80 1005.71 1005.66 1005.68 1005.81 1006.07 1006.45 1006.97 1007.59 1008.31 1009.08 1009.88 1010.68 1011.46 1012.18 1012.84 1013.43 1013.95 1014.39 1014.76 1015.07 1015.33 1015.56 1015.76
1003.53 1003.79 1004.05 1004.27 1004.45 1004.58 1004.67 1004.74 1004.79 1004.86 1004.95 1005.06 1005.18 1005.30 1005.39 1005.44 1005.43 1005.36 1005.25 1005.11 1004.97 1004.87 1004.85 1004.94 1005.16 1005.53 1006.04 1006.67 1007.41 1008.22 1009.07 1009.92 1010.76 1011.56 1012.30 1012.97 1013.59 1014.14 1014.62 1015.06 1015.44 1015.79 1016.10
1003.02 1003.27 1003.51 1003.71 1003.87 1003.97 1004.04 1004.09 1004.14 1004.21 1004.30 1004.42 1004.54 1004.67 1004.76 1004.81 1004.80 1004.71 1004.58 1004.41 1004.24 1004.11 1004.07 1004.13 1004.34 1004.70 1005.22 1005.86 1006.62 1007.45 1008.33 1009.23 1010.10 1010.95 1011.74 1012.48 1013.16 1013.79 1014.36 1014.89 1015.37 1015.81 1016.22
Thickness
5744 5744 5742 5741 5739 5738 5738 5737 5737 5737 5736 5736 5735 5735 5734 5734 5734 5735 5735 5735 5735 5736 5736 5736 5736 5736 5736 5735 5735 5734 5733 5732 5732 5731 5729 5728 5727 5726 5725 5724 5724 5723 5722
5741 5740 5739 5738 5737 5736 5735 5734 5735 5734 5733 5733 5733 5734 5734 5733 5733 5733 5733 5733 5733 5734 5735 5734 5734 5734 5734 5734 5734 5734 5733 5732 5731 5730 5729 5729 5728 5727 5726 5725 5724 5723 5723
5736 5736 5735 5735 5734 5733 5733 5732 5731 5730 5730 5730 5731 5732 5732 5731 5731 5732 5731 5731 5732 5733 5733 5733 5733 5732 5732 5732 5732 5732 5731 5731 5730 5730 5729 5729 5728 5727 5727 5726 5725 5724 5723
5731 5730 5730 5731 5731 5729 5729 5728 5728 5726 5725 5726 5726 5728 5729 5729 5730 5730 5730 5730 5731 5731 5731 5731 5732 5731 5730 5730 5730 5730 5729 5729 5729 5729 5728 5728 5728 5728 5727 5726 5725 5725 5724
5725 5724 5724 5726 5727 5726 5725 5725 5724 5722 5721 5721 5722 5724 5725 5727 5728 5729 5730 5730 5730 5730 5730 5730 5730 5730 5729 5729 5728 5728 5728 5728 5728 5727 5727 5727 5727 5727 5727 5726 5726 5725 5725
5721 5721 5721 5722 5722 5721 5720 5720 5719 5718 5718 5718 5719 5720 5722 5724 5725 5726 5727 5728 5729 5728 5728 5728 5728 5728 5728 5728 5728 5727 5727 5727 5726 5725 5725 5725 5726 5726 5726 5726 5726 5725 5725
5719 5718 5717 5717 5717 5716 5716 5716 5714 5713 5713 5713 5713 5713 5716 5720 5721 5723 5724 5725 5726 5727 5726 5726 5726 5726 5726 5726 5726 5726 5726 5725 5724 5724 5724 5724 5724 5725 5725 5725 5725 5725 5725
5715 5713 5712 5712 5712 5712 5712 5711 5709 5708 5708 5709 5707 5705 5705 5710 5716 5720 5720 5722 5723 5724 5724 5724 5723 5723 5722 5723 5724 5724 5724 5723 5723 5723 5723 5723 5723 5723 5723 5723 5723 5724 5724
5707 5707 5708 5707 5707 5708 5706 5706 5705 5704 5702 5703 5704 5702 5698 5699 5705 5711 5715 5716 5718 5719 5720 5721 5721 5720 5719 5720 5720 5720 5721 5721 5721 5721 5722 5722 5722 5722 5722 5722 5722 5723 5723
5699 5701 5701 5701 5701 5701 5700 5701 5701 5701 5699 5697 5699 5700 5700 5701 5698 5700 5706 5710 5712 5714 5715 5717 5717 5717 5717 5717 5717 5717 5717 5718 5718 5718 5719 5719 5719 5719 5720 5720 5720 5721 5721
5690 5692 5692 5692 5693 5693 5694 5695 5696 5695 5695 5694 5694 5695 5695 5695 5696 5694 5696 5701 5705 5709 5711 5713 5714 5714 5714 5713 5713 5714 5714 5714 5714 5714 5715 5715 5715 5716 5717 5717 5717 5718 5719
5680 5681 5682 5683 5684 5684 5686 5687 5689 5689 5689 5689 5690 5691 5691 5691 5690 5691 5691 5693 5696 5702 5707 5709 5710 5711 5711 5710 5710 5710 5710 5711 5710 5710 5710 5710 5711 5712 5713 5713 5714 5715 5716
5667 5669 5670 5672 5673 5674 5676 5678 5680 5681 5682 5683 5684 5685 5687 5689 5690 5689 5689 5689 5690 5695 5699 5704 5706 5706 5707 5707 5706 5706 5706 5706 5705 5705 5705 5705 5706 5707 5708 5709 5710 5712 5713
5655 5656 5657 5659 5661 5663 5665 5667 5669 5671 5673 5675 5677 5679 5681 5684 5685 5686 5686 5685 5685 5688 5691 5695 5700 5701 5701 5701 5701 5701 5701 5701 5700 5700 5700 5700 5700 5701 5702 5704 5705 5707 5708
5641 5642 5643 5645 5647 5649 5652 5654 5657 5660 5663 5666 5668 5671 5673 5676 5678 5681 5682 5683 5681 5682 5684 5688 5692 5695 5696 5696 5696 5695 5695 5694 5694 5694 5694 5694 5694 5695 5695 5697 5699 5702 5704
5624 5625 5627 5629 5631 5634 5637 5640 5643 5647 5650 5654 5657 5661 5664 5668 5670 5673 5676 5677 5679 5679 5680 5683 5685 5688 5689 5690 5689 5689 5688 5687 5686 5686 5686 5686 5687 5687 5689 5690 5692 5695 5698
5607 5608 5610 5612 5614 5617 5621 5624 5628 5632 5636 5640 5644 5649 5653 5658 5661 5664 5667 5670 5672 5674 5675 5678 5679 5681 5682 5682 5682 5681 5680 5679 5678 5678 5678 5678 5678 5679 5681 5682 5684 5687 5690
5589 5590 5592 5594 5596 5600 5603 5607 5611 5616 5620 5625 5630 5635 5641 5646 5650 5654 5658 5662 5666 5669 5670 5672 5673 5674 5675 5675 5675 5674 5673 5671 5670 5669 5669 5670 5670 5671 5672 5673 5675 5678 5681
5572 5572 5573 5575 5578 5582 5586 5590 5594 5599 5604 5609 5615 5621 5627 5633 5639 5644 5649 5653 5657 5661 5664 5665 5667 5668 5668 5668 5667 5666 5664 5663 5662 5660 5660 5660 5660 5661 5662 5664 5666 5668 5671
5557 5557 5557 5559 5562 5565 5569 5573 5577 5582 5588 5593 5599 5606 5612 5619 5627 5633 5639 5644 5649 5652 5656 5658 5660 5662 5662 5662 5662 5659 5656 5654 5653 5652 5651 5650 5650 5651 5652 5654 5656 5658 5661
5547 5546 5546 5547 5548 5550 5554 5558 5561 5567 5571 5577 5584 5591 5598 5606 5614 5622 5629 5635 5640 5644 5648 5652 5655 5656 5657 5656 5656 5654 5651 5647 5644 5643 5643 5641 5641 5642 5642 5643 5646 5648 5650
5537 5536 5536 5537 5538 5540 5544 5546 5548 5552 5557 5562 5568 5576 5583 5592 5602 5610 5618 5626 5632 5637 5642 5647 5651 5653 5654 5654 5652 5650 5646 5643 5639 5635 5636 5632 5632 5632 5632 5634 5635 5638 5640
5527 5527 5528 5529 5529 5531 5533 5535 5538 5540 5544 5548 5554 5561 5570 5580 5588 5597 5607 5615 5624 5631 5638 5644 5647 5651 5652 5652 5649 5645 5643 5641 5638 5633 5630 5625 5623 5623 5623 5624 5626 5628 5630
5518 5519 5520 5522 5523 5525 5526 5527 5529 5531 5534 5538 5542 5548 5556 5566 5575 5584 5594 5605 5615 5624 5631 5637 5644 5648 5649 5649 5648 5646 5640 5634 5629 5626 5626 5621 5616 5615 5615 5615 5616 5619 5620
5510 5511 5513 5515 5516 5519 5521 5522 5522 5524 5527 5531 5535 5540 5546 5555 5564 5573 5583 5594 5605 5615 5623 5630 5636 5640 5642 5642 5642 5638 5634 5631 5625 5620 5620 5618 5611 5608 5607 5606 5607 5609 5611
5503 5506 5507 5509 5511 5514 5516 5517 5518 5519 5521 5525 5528 5533 5538 5546 5553 5562 5573 5584 5596 5607 5614 5621 5626 5630 5634 5635 5636 5638 5636 5631 5625 5618 5615 5614 5609 5608 5602 5599 5600 5601 5602